Location: Sihaung
(22.8641°N, 94.0549°E)
Time: 16:57:26
(UTC+00:00)

Cosmos 2219 Rocket - Pass Details

Date: 03 March 2021
Orbit: 826 x 848 km, 71.0° (Epoch: 13 April)

Event Time Altitude Azimuth Distance (km) Brightness Sun altitude
Rises 23:16:31 0° 354° (N) 3,396 5.3 -11.5°
Reaches altitude 10° 23:19:09 10° 3° (N) 2,462 4.6 -10.9°
Maximum altitude 23:24:20 36° 69° (ENE) 1,306 3.9 -9.7°
Drops below altitude 10° 23:29:30 10° 135° (SE) 2,462 5.4 -8.5°
Sets 23:32:07 0° 143° (SE) 3,395 6.0 -7.9°
